TimePST,TemperatureF,Dew PointF,Humidity,Sea Level PressureIn,VisibilityMPH,Wind Direction,Wind SpeedMPH,Gust SpeedMPH,PrecipitationIn,Events,Conditions,WindDirDegrees,DateUTC
12:56 AM,34.0,25.0,70,30.11,10.0,Calm,Calm,-,N/A,,Clear,0,2013-12-05 08:56:00
1:56 AM,34.0,25.0,70,30.11,10.0,Calm,Calm,-,N/A,,Clear,0,2013-12-05 09:56:00
2:56 AM,33.1,24.1,70,30.12,10.0,Calm,Calm,-,N/A,,Clear,0,2013-12-05 10:56:00
3:56 AM,33.1,24.1,70,30.12,10.0,Calm,Calm,-,N/A,,Clear,0,2013-12-05 11:56:00
4:56 AM,32.0,21.9,66,30.13,10.0,Calm,Calm,-,N/A,,Clear,0,2013-12-05 12:56:00
5:56 AM,32.0,19.9,61,30.14,10.0,Calm,Calm,-,N/A,,Clear,0,2013-12-05 13:56:00
6:56 AM,32.0,19.9,61,30.15,10.0,Calm,Calm,-,N/A,,Clear,0,2013-12-05 14:56:00
7:56 AM,34.0,21.0,59,30.17,10.0,Calm,Calm,-,N/A,,Clear,0,2013-12-05 15:56:00
8:56 AM,39.9,21.0,47,30.18,10.0,Calm,Calm,-,N/A,,Clear,0,2013-12-05 16:56:00
9:56 AM,43.0,19.0,38,30.19,10.0,North,4.6,-,N/A,,Clear,350,2013-12-05 17:56:00
10:56 AM,44.1,24.1,45,30.19,10.0,NNW,4.6,-,N/A,,Clear,340,2013-12-05 18:56:00
11:56 AM,48.9,15.1,26,30.17,10.0,North,5.8,-,N/A,,Clear,350,2013-12-05 19:56:00
12:56 PM,50.0,15.1,25,30.15,10.0,NE,4.6,-,N/A,,Clear,40,2013-12-05 20:56:00
1:56 PM,50.0,18.0,28,30.13,10.0,North,4.6,-,N/A,,Clear,10,2013-12-05 21:56:00
2:56 PM,51.1,14.0,23,30.13,10.0,North,4.6,-,N/A,,Clear,350,2013-12-05 22:56:00
3:56 PM,50.0,18.0,28,30.13,10.0,NW,5.8,-,N/A,,Clear,320,2013-12-05 23:56:00
4:56 PM,48.0,19.0,32,30.14,10.0,WNW,4.6,-,N/A,,Clear,300,2013-12-06 00:56:00
5:56 PM,46.0,18.0,33,30.15,10.0,WSW,3.5,-,N/A,,Clear,250,2013-12-06 01:56:00
6:56 PM,43.0,19.0,38,30.16,10.0,Calm,Calm,-,N/A,,Clear,0,2013-12-06 02:56:00
7:56 PM,39.9,21.9,49,30.17,10.0,Calm,Calm,-,N/A,,Clear,0,2013-12-06 03:56:00
8:56 PM,39.9,21.0,47,30.18,10.0,Calm,Calm,-,N/A,,Clear,0,2013-12-06 04:56:00
9:56 PM,37.9,21.9,53,30.19,10.0,Calm,Calm,-,N/A,,Clear,0,2013-12-06 05:56:00
10:56 PM,37.0,23.0,57,30.19,10.0,Calm,Calm,-,N/A,,Clear,0,2013-12-06 06:56:00
11:56 PM,35.1,23.0,61,30.19,10.0,SSE,3.5,-,N/A,,Clear,150,2013-12-06 07:56:00